7 * 24
多渠道服务支持
GFDM(高分多模)卫星是中国高分辨率对地观测系统的重要组成部分,具备多模式、多光谱和高分辨率成像能力。该卫星主要用于国土监测、城市规划、灾害预警和环境评估等领域,提供高精度遥感数据支持。其灵活的任务配置和先进的传感器技术,提升了中国在遥感应用方面的自主能力和技术水平,为国家资源管理和应急响应提供了有力保障。
中国
(CN)
| 数据来源 | 国际轨道数据 |
| 星历时间: | 2025-12-15T07:40:19+0800 19小时前 查看轨道信息 |
| 半长轴: | 7017.498km |
| 偏心率: | 0.001058 |
| 轨道倾角: | 97.803° |
| 近地点辐角 | 313.728° |
| 升交点赤经 | 50.322° |
| 平近点角 | 46.305° |
| 近地点: | 631.938km |
| 远地点: | 646.788km |
| 周期: | 97.506分钟 |
| 每日圈数: | 14.76826 |